Home > Weather > Kashgar > Past weeks

Flag for China Weather for the Past 2 Weeks in Kashgar, Xinjiang, China

Now
39 °F

Passing clouds.


Feels Like: 39 °F
Forecast: 25 / 35 °F
Wind: No wind

Location: Kashi Airport

Current Time: Feb 10, 2016 at 11:29:48 PM

Latest Report: Feb 10, 2016 at 11:00 PM


Visibility: 4 mi

Pressure: 29.71 "Hg (25.32 "Hg at 1298m altitude)

Humidity: 45%

Dew point: 19 °F

Location of KashgarLocation

Historic Weather in Kashgar — Graph

°F

Kashgar Temperature Yesterday

Maximum temperature yesterday: 46 °F (at 6:00 PM)
Minimum temperature yesterday: 25 °F (at 9:00 AM)
Average temperature yesterday: 34 °F

High & Low Weather Summary for the Past Weeks

 TemperatureHumidityPressure
High46 °F (Feb 9, 6:00 PM)93% (Jan 30, 10:00 PM)30.69 "Hg (Jan 30, 10:00 PM)
Low14 °F (Jan 27, 5:00 AM)29% (Feb 9, 6:00 PM)29.62 "Hg (Feb 10, 5:00 PM)
Average26 °F69%30.22 "Hg
* Reported Jan 26 10:00 PM — Feb 10 10:00 PM, Kashgar, Weather by CustomWeather, © 2016

Note: Actual official high and low records may vary slightly from our data, if they occured in-between our weather recording intervals... More about our weather records

Advertising

Kashgar Weather History for the Previous 24 Hours

 ConditionsComfort  
Time TempWeatherWind HumidityBarometerVisibility
10:00 PM
Wed, Feb 10
39 °FPassing clouds.1 mph52%29.68 "Hg4 mi
9:00 PM41 °FPassing clouds.3 mph45%29.65 "Hg4 mi
8:00 PM43 °FPartly sunny.3 mph42%29.65 "HgN/A
7:00 PM46 °FScattered clouds.3 mph32%29.62 "Hg4 mi
6:00 PM46 °FScattered clouds.No wind32%29.62 "Hg4 mi
5:00 PM45 °FScattered clouds.1 mph37%29.62 "Hg6 mi
4:00 PM43 °FScattered clouds.No wind39%29.65 "Hg6 mi
3:00 PM41 °FScattered clouds.No wind39%29.68 "HgN/A
2:00 PM39 °FPassing clouds.No wind45%29.71 "HgN/A
1:00 PM36 °FSunny.No wind52%29.74 "Hg10 mi
12:00 PM32 °FSunny.1 mph64%29.74 "Hg10 mi
11:00 AM30 °FSunny.8 mph64%29.74 "Hg10 mi
10:00 AM27 °FClear.8 mph74%29.74 "Hg5 mi
9:00 AM30 °FClear.10 mph64%29.74 "Hg5 mi
8:00 AM28 °FClear.8 mph69%29.74 "Hg5 mi
7:00 AM28 °FClear.6 mph69%29.74 "Hg5 mi
6:00 AM30 °FClear.8 mph69%29.77 "Hg5 mi
5:00 AM32 °FClear.3 mph64%29.80 "Hg5 mi
4:00 AM32 °FPassing clouds.3 mph60%29.80 "Hg5 mi
3:00 AM32 °FClear.3 mph60%29.83 "Hg10 mi
2:00 AM34 °FClear.8 mph56%29.83 "Hg10 mi
1:00 AM34 °FClear.8 mph56%29.86 "Hg10 mi
12:00 AM34 °FClear.6 mph56%29.86 "Hg10 mi
11:00 PM
Tue, Feb 9
34 °FPassing clouds.3 mph56%29.89 "Hg5 mi
Weather by CustomWeather, © 2016

See weather overviewHow to use our weather pages